Location: Clanezzo
(45.7500°N, 9.6000°E)
Time: 04:29:30
(UTC+00:00)

Cosmos 1745 Rocket - Pass Details

Date: 12 May 2021
Orbit: 952 x 999 km, 83.0° (Epoch: 18 June)

Event Time Altitude Azimuth Distance (km) Brightness Sun altitude
Rises 19:39:34 0° 349° (N) 3,671 7.9 -9.1°
Reaches altitude 10° 19:42:06 10° 347° (NNW) 2,713 7.2 -9.4°
Maximum altitude 19:48:14 68° 266° (W) 1,031 4.3 -10.3°
Drops below altitude 10° 19:54:17 10° 185° (S) 2,673 6.0 -11.1°
Sets 19:56:46 0° 183° (S) 3,612 6.6 -11.4°
